• Join FlightAware (Why Join?)
  • Login
  • US Flag 
03:18PM EST


 

Airport Tracker/Info


-or-


 

Live Flight TrackerFlight Track Log ✈ SWA3355 ✈ 02-Jan-2013 ✈ KDEN - KBOI

Flight Track Log - Related Links

Times and Time Zones

All times are in EST time to prevent confusion due to time zone crossing. See the SWA3355 flight status page for this flight to view local times or setup timezone preferences in your user account.

Time Position Orientation Groundspeed Altitude Reporting Facility
EST Latitude Longitude Course Direction KTS MPH feet Rate Location/Type
12:40AM 39.7667 -104.6500 281° West 221 254 7,800  Level Denver TRACON
12:41AM 39.7156 -104.6300 163° South 251 289 10,200 2,760 Climbing Denver Center
12:42AM 39.6964 -104.7142 254° West 276 318 13,000 2,820 Climbing Denver Center
12:43AM 39.7094 -104.8169 279° West 289 333 15,900 2,400 Climbing Denver Center
12:44AM 39.7264 -104.9486 280° West 369 425 17,900 2,220 Climbing Denver Center
12:45AM 39.9715 -105.4174 281° West  Level FlightAware Approximate
12:45AM 39.7425 -105.0869 279° West 389 448 20,500  Level Denver Center
12:46AM 39.7631 -105.2528 279° West 445 512 22,600 1,860 Climbing Denver Center
12:47AM 39.7839 -105.4189 279° West 469 540 24,300 1,620 Climbing Denver Center
12:48AM 39.8053 -105.5942 279° West 484 557 26,000 1,680 Climbing Denver Center
12:49AM 39.8261 -105.7717 279° West 491 565 27,800 1,980 Climbing Denver Center
12:50AM 39.8478 -105.9458 279° West 485 558 30,100 2,460 Climbing Denver Center
12:51AM 39.8683 -106.1197 279° West 483 556 32,800 1,860 Climbing Denver Center
12:52AM 39.8875 -106.2892 278° West 474 545 34,000 540 Climbing Denver Center
12:53AM 39.9069 -106.4581 279° West 469 540 34,000 240 Level Denver Center
12:54AM 39.9289 -106.6344 279° West 470 541 34,600 1,500 Climbing Denver Center
12:55AM 39.9478 -106.7969 279° West 462 532 37,100 1,680 Climbing Denver Center
12:56AM 39.9628 -106.9472 277° West 437 503 38,000 420 Climbing Denver Center
12:57AM 39.9806 -107.0983 279° West 439 505 38,000  Level Denver Center
12:58AM 39.9992 -107.2761 278° West 443 510 38,000  Level Denver Center
12:59AM 40.0158 -107.4289 278° West 445 512 38,000  Level Denver Center
01:00AM 40.0322 -107.5817 278° West 445 512 38,000  Level Denver Center
01:01AM 40.0503 -107.7597 278° West 444 511 38,000  Level Denver Center
01:02AM 40.0686 -107.9128 279° West 447 514 38,000  Level Denver Center
01:03AM 40.1469 -108.0814 301° West 424 488 38,000  Level Denver Center
01:04AM 40.2075 -108.2061 302° West 425 489 38,000  Level Denver Center
01:05AM 40.2703 -108.3286 304° West 426 490 38,000  Level Denver Center
01:06AM 40.3433 -108.4758 303° West 429 494 38,000  Level Denver Center
01:07AM 40.4058 -108.6014 303° West 431 496 38,000  Level Denver Center
01:08AM 40.4803 -108.7522 303° West 439 505 38,000  Level Denver Center
01:09AM 40.5442 -108.8803 303° West 440 506 38,000  Level Denver Center
01:10AM 40.5994 -108.9942 303° West 444 511 38,000 -240 Level Salt Lake Center
01:11AM 40.6644 -109.1281 303° West 449 517 37,600 -840 Descending Salt Lake Center
01:12AM 40.7397 -109.2844 302° West 459 528 36,400 -1,440 Descending Salt Lake Center
01:13AM 40.8058 -109.4194 303° West 460 529 34,800 -1,200 Descending Salt Lake Center
01:14AM 40.8714 -109.5536 303° West 443 510 34,000 -420 Descending Salt Lake Center
01:15AM 40.9436 -109.7047 302° West 435 501 34,000  Level Salt Lake Center
01:16AM 41.0050 -109.8358 302° West 436 502 34,000  Level Salt Lake Center
01:17AM 41.0675 -109.9675 302° West 438 504 34,000  Level Salt Lake Center
01:18AM 41.1408 -110.1228 302° West 442 509 34,000  Level Salt Lake Center
01:19AM 41.2044 -110.2569 302° West 445 512 34,000  Level Salt Lake Center
01:20AM 41.2669 -110.3919 302° West 447 514 34,000  Level Salt Lake Center
01:21AM 41.3406 -110.5500 302° West 449 517 34,000  Level Salt Lake Center
01:22AM 41.4039 -110.6864 302° West 451 519 34,000  Level Salt Lake Center
01:23AM 41.4672 -110.8233 302° West 452 520 34,000  Level Salt Lake Center
01:24AM 41.5383 -110.9783 302° West 454 522 34,000  Level Salt Lake Center
01:25AM 41.6044 -111.1217 302° West 455 524 34,000  Level Salt Lake Center
01:26AM 41.6703 -111.2658 301° West 457 526 34,000  Level Salt Lake Center
01:27AM 41.7358 -111.4089 302° West 456 525 34,000  Level Salt Lake Center
01:28AM 41.8003 -111.5522 301° West 454 522 34,000  Level Salt Lake Center
01:29AM 41.8644 -111.6975 301° West 455 524 34,000  Level Salt Lake Center
01:30AM 41.9289 -111.8403 301° West 453 521 34,000  Level Salt Lake Center
01:31AM 42.0067 -112.0119 301° West 452 520 34,000  Level Salt Lake Center
01:32AM 42.0697 -112.1569 300° West 452 520 34,000  Level Salt Lake Center
01:33AM 42.1339 -112.3014 301° West 452 520 34,000  Level Salt Lake Center
01:34AM 42.1975 -112.4461 301° West 451 519 34,000  Level Salt Lake Center
01:35AM 42.2569 -112.5950 298° West 452 520 34,000  Level Salt Lake Center
01:36AM 42.3142 -112.7478 297° West 455 524 34,000  Level Salt Lake Center
01:37AM 42.3722 -112.9006 297° West 458 527 34,000  Level Salt Lake Center
01:38AM 42.4419 -113.0850 297° West 460 529 34,000  Level Salt Lake Center
01:39AM 42.5000 -113.2389 297° West 461 531 34,000  Level Salt Lake Center
01:40AM 42.5581 -113.3925 297° West 460 529 34,000  Level Salt Lake Center
01:41AM 42.6161 -113.5486 297° West 462 532 34,000  Level Salt Lake Center
01:42AM 42.6733 -113.7022 297° West 464 534 34,000  Level Salt Lake Center
01:44AM 42.7306 -113.8631 296° West 465 535 34,000  Level Salt Lake Center
01:45AM 42.7856 -114.0219 295° West 465 535 34,000  Level Salt Lake Center
01:46AM 42.8422 -114.1772 297° West 460 529 34,000  Level Salt Lake Center
01:47AM 42.9000 -114.3325 297° West 460 529 34,000 -600 Level Salt Lake Center
01:48AM 42.9597 -114.4883 298° West 458 527 32,900 -2,340 Descending Salt Lake Center
01:49AM 43.0139 -114.6381 296° West 458 527 29,400 -3,420 Descending Salt Lake Center
01:50AM 43.0764 -114.8158 296° West 462 532 26,100 -2,760 Descending Salt Lake Center
01:51AM 43.1275 -114.9625 296° West 449 517 23,900 -2,760 Descending Salt Lake Center
01:52AM 43.1761 -115.1006 296° West 425 489 20,600 -3,060 Descending Salt Lake Center
01:53AM 43.2311 -115.2558 296° West 423 487 17,700 -2,640 Descending Salt Lake Center
01:54AM 43.2808 -115.3997 295° West 404 465 15,300 -2,100 Descending Salt Lake Center
01:55AM 43.3250 -115.5278 295° West 389 448 13,600 -1,800 Descending Salt Lake Center
01:56AM 43.3692 -115.6547 296° West 357 411 11,700 -1,740 Descending Salt Lake Center
01:57AM 43.4083 -115.7683 295° West 344 396 10,100 -1,680 Descending Salt Lake Center
01:58AM 43.4436 -115.8722 295° West 287 330 8,400 -1,680 Descending Salt Lake Center
01:59AM 43.4783 -115.9717 296° West 277 319 6,800 -1,560 Descending Salt Lake Center
02:00AM 43.5075 -116.0531 296° West 248 285 5,300 -1,320 Descending Salt Lake Center
02:01AM 43.5294 -116.1214 294° West 186 214 4,200 -840 Descending Salt Lake Center
02:02AM 43.5444 -116.1678 294° West 158 182 3,700 -540 Descending Salt Lake Center
02:04AM 43.5500 -116.2167 289° West  Level FlightAware Approximate
02:11AM 43.5644 -116.2229 289° West  Level Estimated
02:12AM 43.5644 -116.2229 289° West  Level Estimated